Wind_Speed
17 17 16 15 14 15 15 16 17 16 18 19 20 20 20 21 21 22 21 21 21 21 21 21 21 20 20 19 19 19 19 20 20 21 21 21 22 22 22 22 23 22 22 22
17 16 16 15 15 15 15 17 17 17 19 20 20 21 22 22 23 23 23 23 23 23 23 22 22 22 21 20 20 20 20 20 21 21 21 22 23 22 22 22 22 23 22 23
17 17 16 14 14 15 16 17 18 19 19 21 22 22 23 24 24 25 25 25 24 23 23 22 22 21 21 21 21 21 21 21 21 21 21 21 21 21 21 21 20 21 21 21
17 17 16 14 14 15 15 16 18 19 21 22 22 23 24 25 25 25 25 24 24 23 23 22 21 21 21 21 21 21 20 20 20 20 20 21 21 21 20 19 20 19 19 19
18 17 15 15 16 17 17 17 19 20 21 21 22 24 25 25 25 25 24 24 23 22 22 21 21 21 20 20 20 19 18 18 18 19 20 19 19 19 19 20 20 19 19 18
18 17 16 15 16 17 18 18 19 19 20 21 23 24 24 24 24 24 23 22 22 21 21 20 19 19 18 18 18 17 17 17 17 17 18 17 17 17 17 17 17 18 18 17
16 16 16 16 16 16 17 17 17 18 19 21 22 23 24 23 23 22 21 21 20 20 19 18 17 16 16 16 15 15 15 14 14 15 16 16 16 16 15 15 15 16 16 17
15 16 16 15 16 16 16 15 16 17 19 20 21 22 22 21 21 20 20 19 18 17 16 15 15 14 13 12 12 12 12 12 12 12 12 13 13 13 14 14 13 14 15 15
14 15 15 15 15 14 14 14 15 17 18 19 20 20 20 19 19 19 18 17 16 14 13 13 12 11 10 10 9 9 9 9 10 9 9 10 10 11 11 12 13 13 13 13
12 12 13 14 13 12 13 13 14 15 16 17 18 18 17 17 17 16 15 14 13 11 11 10 9 8 8 7 7 7 7 7 8 8 8 8 9 10 9 10 10 11 11 11
10 10 10 10 9 10 11 11 12 14 15 16 16 15 15 15 15 14 13 11 10 9 8 7 6 5 5 5 5 5 5 6 6 6 7 7 7 8 8 7 8 8 9 9
8 8 8 7 8 8 9 10 11 11 13 14 15 14 14 14 13 12 11 9 7 6 5 4 3 3 3 3 3 4 4 5 5 6 7 6 6 6 6 6 6 6 6 6
7 7 6 5 6 6 7 8 9 11 12 14 14 14 13 12 12 11 10 8 6 5 4 3 1 1 0 1 2 3 3 4 5 5 5 5 6 5 5 5 4 4 4 3
7 6 5 4 4 4 5 7 8 10 12 13 14 13 13 12 11 10 9 7 5 4 4 3 2 2 2 3 3 3 3 3 4 5 5 5 5 4 4 3 2 2 2 1
6 6 5 3 3 3 4 6 7 10 12 13 13 13 13 12 11 10 9 7 6 5 5 5 5 5 5 5 5 4 4 5 5 5 5 5 5 4 4 4 4 3 3 3
7 6 5 3 2 1 3 5 8 10 12 13 13 13 12 12 11 11 10 8 8 7 7 7 7 7 7 7 7 7 7 7 7 7 7 7 7 6 6 6 5 5 5 5
8 7 5 3 2 0 3 5 8 10 11 12 13 13 12 12 12 12 11 10 9 9 9 9 10 10 10 10 10 10 10 10 9 9 9 9 9 8 8 8 7 7 7 7
8 6 5 3 2 1 3 6 8 10 11 12 13 13 13 12 12 13 13 12 12 12 12 12 12 12 12 12 12 12 12 12 11 11 10 10 10 10 10 10 10 9 9 9
8 7 5 4 2 2 3 5 7 9 11 12 13 13 14 13 13 13 14 14 14 14 14 14 14 14 14 14 13 13 13 13 13 13 12 12 12 12 12 11 11 11 11 11
9 8 6 5 3 3 4 5 7 8 10 12 13 13 14 15 14 14 14 15 15 15 15 14 14 14 14 14 14 14 14 14 14 14 15 14 14 14 14 13 13 13 13 13
11 9 7 6 5 4 5 6 7 8 10 12 13 14 15 15 15 15 15 15 15 15 15 16 16 15 15 15 15 14 15 15 15 16 16 16 16 16 15 15 15 15 14 13
12 10 9 7 6 5 5 6 6 8 9 11 12 13 14 15 15 15 16 16 16 16 16 17 17 16 16 16 16 16 16 16 16 17 17 17 16 16 16 16 15 15 14 14
14 12 11 9 8 7 6 6 6 6 8 9 11 12 13 14 15 15 16 16 16 16 17 17 17 17 17 18 18 18 17 17 17 17 16 16 16 16 15 15 15 15 14 14
15 14 12 11 9 8 7 6 6 6 7 8 10 11 12 13 14 15 16 16 16 16 17 17 17 18 18 19 19 19 18 18 17 17 17 16 16 15 15 15 14 14 14 14
18 16 14 13 11 10 9 8 7 6 7 7 8 9 10 12 13 14 15 15 16 16 16 17 17 18 18 18 18 18 18 17 17 16 16 15 15 15 15 14 14 14 13 13
20 19 17 15 14 12 11 10 9 8 7 7 8 8 9 10 11 12 13 14 14 15 15 16 16 16 17 17 17 17 17 16 15 15 15 14 14 14 14 14 13 13 13 12
23 21 20 18 16 15 13 12 11 10 9 8 8 8 8 8 9 10 11 11 12 13 13 14 14 14 15 15 15 15 15 14 14 14 14 13 13 13 13 12 12 11 11 11
Wind_Direction
259 261 267 275 279 282 288 292 294 297 298 301 304 305 305 305 305 303 301 297 293 291 288 285 281 278 274 271 268 264 259 255 251 249 246 244 243 243 241 241 242 243 241 239
257 261 267 275 279 282 287 292 294 296 297 299 301 301 302 303 304 302 299 297 294 291 288 285 281 277 273 270 268 265 260 255 253 251 248 245 244 244 241 240 242 243 242 242
255 262 270 277 281 284 288 290 293 296 296 298 299 300 300 302 303 301 299 297 295 292 289 287 282 278 274 271 269 266 262 256 253 251 248 247 247 245 244 242 242 244 244 242
259 262 268 277 280 282 286 292 293 294 295 297 299 301 302 302 302 300 299 298 296 293 290 287 284 279 274 272 270 266 263 257 252 250 246 244 246 247 246 242 241 241 240 241
260 265 268 273 281 284 286 291 293 295 295 296 300 302 302 302 302 301 299 298 296 294 290 286 283 280 277 274 270 266 262 258 252 248 245 245 245 246 246 244 241 240 242 243
258 264 270 275 280 283 288 292 294 296 297 300 303 303 304 305 304 302 299 297 296 294 290 286 283 280 279 274 270 264 260 257 253 247 244 243 243 243 243 241 240 240 241 242
257 265 273 278 281 284 288 294 298 299 301 303 304 305 307 307 305 303 302 299 297 295 291 287 284 282 279 277 271 262 257 253 247 243 242 239 239 238 237 237 240 240 241 243
260 266 272 275 280 286 290 294 299 302 303 305 306 308 309 309 308 307 305 302 300 297 290 286 284 283 281 275 266 258 253 249 249 244 236 233 235 234 235 235 238 242 244 246
261 266 272 275 281 290 294 295 300 304 306 309 311 311 312 312 312 312 310 306 303 298 292 287 284 281 279 273 260 252 246 241 242 241 230 228 230 232 235 235 237 240 242 245
257 264 270 275 282 289 295 300 305 310 313 315 316 315 315 316 317 319 318 314 309 304 297 291 283 276 272 267 251 242 236 232 231 230 224 222 226 229 232 235 237 240 242 245
252 259 263 271 280 289 300 308 313 316 319 322 325 324 323 326 327 328 325 322 317 312 306 298 288 274 273 259 243 237 231 223 217 220 218 219 223 225 226 231 237 239 242 246
245 246 255 265 274 285 300 310 316 323 331 334 333 332 333 336 337 336 334 333 329 323 318 312 301 292 278 248 228 218 214 211 210 211 210 214 215 213 220 228 232 237 241 244
232 239 251 257 267 284 302 317 325 331 340 343 343 342 343 346 347 348 346 342 340 339 337 337 341 346 114 169 181 182 184 189 193 196 199 200 202 204 205 211 218 220 225 236
219 221 224 240 262 284 312 329 338 346 350 351 350 351 352 354 355 356 357 357 357 359 7 19 48 83 112 132 142 151 160 166 173 176 177 176 183 189 188 182 180 178 181 203
197 196 201 219 255 284 321 339 351 356 358 358 359 360 3 7 9 9 11 17 27 38 48 58 73 87 101 111 114 119 126 131 134 136 144 150 153 151 144 133 122 111 101 94
188 184 187 206 234 294 346 1 7 7 7 8 9 10 13 17 21 26 31 41 51 60 67 75 81 89 97 102 103 103 106 112 117 120 121 126 127 124 121 116 109 102 95 86
181 176 177 180 188 117 27 19 18 17 16 17 19 22 25 30 35 40 46 56 64 71 78 83 88 94 97 98 98 99 101 104 108 111 111 113 115 113 110 107 103 98 92 86
180 176 173 166 145 95 37 25 24 24 23 25 29 31 35 39 44 49 56 65 73 79 82 85 90 92 94 96 98 99 99 99 102 104 106 107 108 106 105 102 99 95 91 89
186 182 173 164 143 97 55 37 33 32 31 32 34 38 43 49 54 60 64 70 76 80 82 86 89 92 93 94 95 96 96 96 97 99 101 103 103 103 103 102 98 93 91 89
182 177 169 158 139 105 78 61 49 42 40 39 42 46 51 56 62 67 72 75 77 81 84 86 89 91 92 93 94 95 96 97 97 97 98 99 100 100 99 98 95 94 92 90
179 174 168 162 150 124 98 79 63 54 50 50 53 56 60 63 67 70 74 77 80 83 84 85 87 89 91 93 95 97 97 98 98 97 98 97 97 96 95 94 93 92 90 87
182 179 175 170 160 141 115 94 78 68 62 61 62 64 67 69 70 73 75 78 82 85 86 87 87 88 91 93 95 97 98 98 99 99 98 96 95 93 92 92 91 89 87 84
187 186 182 177 166 151 131 112 96 85 78 72 70 71 72 73 74 76 78 80 82 85 87 87 88 88 90 92 94 95 97 98 99 99 98 96 94 92 91 90 89 87 85 83
191 190 187 182 173 161 148 135 121 107 97 88 83 80 79 79 80 80 80 82 84 85 86 87 88 89 90 91 93 94 96 97 98 98 97 95 93 91 89 87 86 85 84 81
197 195 192 188 181 172 163 155 144 130 118 107 99 93 88 86 85 84 84 84 85 86 88 88 89 90 91 92 93 94 95 96 96 95 94 92 90 89 87 84 83 82 80 77
200 199 196 194 190 183 176 169 161 151 140 128 117 109 103 98 94 91 89 88 87 88 90 90 91 91 92 93 93 93 93 93 94 93 92 91 89 87 85 83 81 78 75 71
203 203 201 198 196 192 187 180 174 168 160 151 140 128 119 112 106 101 97 95 93 92 91 91 91 92 93 93 94 93 93 92 92 91 90 88 86 84 82 79 75 71 66 63
Height
5764 5764 5764 5765 5764 5764 5763 5762 5761 5760 5758 5757 5754 5752 5750 5747 5744 5741 5738 5736 5734 5731 5729 5728 5726 5725 5724 5723 5722 5722 5722 5722 5722 5723 5724 5725 5726 5727 5728 5730 5732 5734 5736 5738
5760 5760 5760 5761 5761 5760 5759 5758 5757 5756 5754 5752 5750 5747 5745 5742 5739 5736 5733 5730 5728 5726 5723 5722 5720 5719 5718 5717 5716 5716 5716 5716 5717 5718 5718 5719 5721 5722 5723 5725 5726 5729 5731 5733
5756 5756 5757 5758 5758 5757 5756 5754 5753 5751 5750 5747 5745 5742 5740 5737 5734 5730 5727 5724 5722 5719 5717 5715 5713 5712 5711 5711 5710 5710 5710 5710 5711 5712 5713 5714 5715 5717 5718 5720 5722 5723 5725 5727
5751 5753 5753 5756 5754 5753 5752 5751 5748 5746 5744 5742 5740 5737 5734 5731 5728 5724 5721 5718 5715 5712 5710 5708 5707 5706 5705 5704 5704 5704 5704 5704 5705 5706 5707 5708 5710 5711 5713 5714 5716 5718 5720 5722
5747 5748 5749 5751 5749 5748 5748 5747 5744 5742 5739 5737 5734 5731 5728 5724 5721 5718 5715 5711 5708 5706 5704 5702 5700 5699 5698 5698 5698 5698 5698 5698 5699 5700 5702 5703 5705 5706 5708 5710 5712 5714 5716 5718
5743 5744 5745 5747 5745 5743 5744 5742 5740 5737 5734 5732 5729 5726 5723 5719 5715 5712 5708 5705 5702 5700 5698 5696 5695 5693 5692 5692 5692 5692 5692 5693 5694 5695 5697 5699 5700 5702 5704 5706 5707 5709 5711 5713
5740 5740 5741 5742 5740 5740 5740 5739 5735 5732 5730 5727 5724 5721 5717 5713 5709 5706 5703 5700 5697 5694 5692 5691 5689 5688 5688 5687 5687 5687 5687 5688 5689 5691 5693 5694 5696 5698 5700 5702 5704 5706 5708 5709
5736 5737 5739 5737 5736 5736 5735 5733 5731 5728 5725 5722 5719 5715 5711 5708 5704 5701 5697 5695 5692 5690 5688 5686 5685 5684 5684 5683 5683 5683 5684 5685 5686 5688 5689 5691 5693 5695 5697 5699 5701 5703 5705 5707
5733 5735 5734 5733 5733 5732 5731 5729 5727 5724 5721 5718 5714 5711 5707 5703 5700 5696 5693 5690 5688 5686 5684 5683 5682 5681 5681 5680 5680 5680 5681 5682 5684 5685 5687 5688 5690 5692 5694 5696 5698 5700 5701 5703
5729 5730 5730 5730 5730 5729 5727 5726 5723 5721 5718 5714 5711 5707 5703 5700 5696 5693 5689 5687 5684 5682 5681 5680 5679 5678 5678 5678 5678 5679 5680 5681 5682 5684 5685 5687 5689 5691 5692 5694 5696 5697 5699 5700
5726 5727 5727 5727 5727 5726 5725 5723 5721 5718 5715 5712 5708 5704 5700 5697 5693 5690 5687 5684 5681 5680 5679 5678 5677 5677 5676 5677 5677 5678 5679 5680 5681 5683 5684 5686 5687 5689 5691 5692 5694 5695 5697 5698
5724 5725 5726 5726 5725 5725 5723 5721 5719 5717 5713 5709 5706 5702 5698 5695 5691 5688 5685 5683 5680 5679 5677 5676 5676 5676 5675 5675 5676 5677 5678 5679 5680 5682 5684 5685 5687 5688 5690 5691 5692 5694 5695 5696
5722 5723 5723 5724 5724 5723 5722 5720 5718 5715 5712 5708 5704 5701 5697 5693 5690 5687 5684 5682 5680 5678 5677 5676 5675 5675 5675 5675 5676 5677 5678 5679 5680 5682 5683 5685 5686 5688 5689 5691 5692 5693 5694 5695
5720 5721 5722 5723 5723 5722 5721 5719 5717 5714 5711 5707 5704 5700 5696 5693 5689 5686 5684 5682 5680 5678 5677 5676 5675 5675 5675 5676 5677 5677 5678 5679 5681 5682 5683 5685 5686 5688 5690 5691 5692 5693 5694 5695
5719 5721 5722 5722 5722 5722 5721 5719 5717 5714 5710 5707 5703 5699 5696 5692 5689 5687 5684 5682 5680 5679 5678 5677 5677 5676 5677 5677 5678 5679 5680 5680 5682 5683 5684 5686 5687 5689 5690 5692 5693 5694 5695 5695
5718 5720 5721 5722 5722 5721 5720 5719 5716 5714 5710 5707 5703 5700 5696 5693 5690 5687 5685 5683 5681 5680 5680 5679 5679 5679 5679 5679 5680 5681 5682 5682 5683 5685 5686 5687 5689 5690 5692 5693 5694 5695 5696 5696
5718 5719 5721 5722 5722 5721 5720 5719 5717 5714 5711 5708 5704 5701 5698 5695 5692 5689 5687 5685 5684 5683 5682 5682 5682 5682 5682 5683 5683 5684 5684 5685 5686 5687 5688 5690 5691 5692 5694 5695 5696 5697 5697 5698
5719 5720 5721 5722 5722 5721 5720 5719 5717 5715 5712 5709 5706 5703 5700 5697 5694 5692 5690 5688 5687 5686 5686 5685 5685 5685 5686 5686 5687 5687 5688 5689 5690 5690 5691 5692 5693 5695 5696 5697 5698 5699 5699 5700
5719 5720 5721 5722 5722 5721 5721 5720 5718 5716 5714 5711 5708 5705 5702 5700 5698 5696 5694 5692 5691 5690 5690 5690 5690 5690 5690 5690 5691 5691 5692 5693 5693 5694 5695 5695 5696 5697 5699 5700 5700 5701 5702 5702
5719 5720 5722 5722 5722 5722 5722 5721 5720 5718 5716 5714 5711 5708 5706 5704 5701 5700 5698 5697 5696 5695 5695 5694 5694 5694 5694 5694 5695 5695 5696 5697 5697 5698 5699 5700 5700 5701 5702 5703 5704 5704 5705 5705
5719 5720 5722 5722 5723 5723 5723 5722 5721 5720 5718 5716 5714 5712 5710 5708 5706 5704 5703 5702 5701 5700 5699 5699 5699 5699 5699 5699 5699 5700 5700 5701 5702 5703 5703 5704 5705 5706 5706 5707 5707 5708 5708 5709
5718 5720 5721 5723 5723 5724 5724 5724 5723 5722 5721 5720 5718 5716 5714 5713 5711 5710 5708 5707 5706 5705 5704 5704 5704 5704 5703 5703 5704 5704 5705 5705 5706 5707 5708 5709 5709 5710 5711 5711 5711 5712 5712 5712
5718 5720 5721 5723 5724 5724 5725 5725 5725 5725 5724 5723 5722 5720 5719 5718 5716 5715 5714 5712 5711 5711 5710 5709 5709 5709 5709 5708 5708 5709 5709 5710 5711 5712 5713 5713 5714 5714 5715 5715 5715 5716 5716 5716
5717 5719 5721 5723 5724 5725 5725 5726 5727 5727 5727 5726 5725 5724 5723 5722 5721 5720 5719 5717 5717 5716 5715 5715 5714 5714 5714 5714 5714 5714 5715 5715 5716 5717 5717 5718 5718 5719 5719 5719 5719 5719 5719 5719
5716 5719 5721 5723 5724 5725 5726 5727 5728 5728 5729 5729 5728 5728 5727 5726 5726 5725 5723 5723 5722 5721 5721 5720 5720 5719 5719 5719 5719 5720 5720 5720 5721 5721 5722 5722 5722 5723 5723 5723 5723 5723 5722 5722
5715 5717 5720 5722 5724 5725 5726 5728 5729 5729 5730 5730 5730 5730 5730 5730 5729 5729 5728 5727 5727 5726 5726 5725 5725 5725 5724 5724 5724 5725 5725 5725 5726 5726 5726 5726 5726 5726 5726 5726 5726 5726 5726 5725
5712 5715 5718 5721 5723 5724 5726 5727 5729 5730 5731 5732 5732 5732 5732 5733 5732 5732 5731 5731 5731 5731 5730 5730 5729 5729 5729 5729 5729 5729 5729 5729 5730 5730 5730 5730 5730 5730 5730 5730 5729 5729 5728 5728